x

La Perouse Bank (46206) Wave Buoy

4:00 - Mon 29th Dec 2014 All times are PST. -8 hours from GMT.

  • Sig Wave height 6.2ft
  • Peak Period 10s
  • Wind
    16mph, 20mph gusts
  • Sea Temp 51°f
  • Luft Temp 44°f
  • Sea Pressure 1027.4mb
  • La Perouse Bank
  • La Perouse Bank

More Historic Weather Station data

Upgrade to MSW Pro to gain access to the past 30 days of data for over 8000 Wavebouys and Weather Stations around the globe.

Join Pro

Comparision Forecast

View Surf forecast
   
Mo 12/29 4:00 6ft 10s 16 20 mph 1027.4mb 51f 44f
3:00 6.5ft 10s 13 18 mph 1026.8mb 51f 44f
2:00 7.5ft 9s 16 20 mph 1026mb 51f 44f
1:00 7ft 10s 13 16 mph 1025.3mb 51f 45f
12:00 7ft 11s 13 18 mph 1024.4mb 51f 45f
So 12/28 11:00 7ft 10s 16 18 mph 1023.8mb 51f 45f
10:00 8.5ft 10s 16 20 mph 1023.1mb 51f 46f
9:00 8.5ft 11s 9 11 mph 1022.7mb 51f 45f
8:00 9ft 9s 7 11 mph 1022.5mb 51f 46f
7:00 9ft 10s 11 16 mph 1022.1mb 51f 46f
6:00 11ft 10s 16 20 mph 1021.6mb 51f 47f
5:00 11ft 10s 22 29 mph 1021.3mb 51f 48f
4:00 10ft 12s 25 29 mph 1021.5mb 51f 48f
3:00 11ft 12s 25 29 mph 1021.7mb 51f 48f
2:00 11ft 12s 25 29 mph 1021.7mb 51f 48f
1:00 11.5ft 13s 22 27 mph 1022.3mb 52f 48f
12:00 12ft 12s 20 25 mph 1022.8mb 52f 47f
11:00 11ft 12s 20 25 mph 1023.2mb 52f 47f
10:00 12ft 11s 22 27 mph 1023mb 52f 47f
9:00 13ft 12s 25 29 mph 1022.8mb 52f 47f
8:00 13ft 11s 25 31 mph 1022.5mb 52f 47f
7:00 14ft 11s 27 31 mph 1022.1mb 52f 47f
6:00 14ft 12s 25 29 mph 1021.8mb 52f 47f
5:00 14ft 12s 29 34 mph 1021.1mb 51f 47f
4:00 14ft 12s 29 36 mph 1020.8mb 51f 48f
3:00 15.5ft 12s 29 36 mph 1021mb 52f 48f
2:00 15ft 10s 27 34 mph 1020.6mb 52f 48f
1:00 16.5ft 12s 27 34 mph 1020.3mb 52f 48f
12:00 15ft 13s 27 34 mph 1019.8mb 51f 48f
Sa 12/27 11:00 15ft 13s 29 36 mph 1019.6mb 52f 48f
10:00 15.5ft 11s 29 36 mph 1019.4mb 52f 49f
9:00 16ft 10s 29 38 mph 1018.8mb 52f 49f
7:00 14.5ft 9s 31 38 mph 1018.3mb 52f 49f
6:00 14ft 14s 27 36 mph 1018mb 52f 49f
5:00 13.5ft 9s 31 38 mph 1017.4mb 52f 49f
4:00 12.5ft 8s 31 40 mph 1017.4mb 52f 50f
3:00 12.5ft 8s 29 36 mph 1017.1mb 52f 50f
2:00 11ft 14s 27 34 mph 1017.1mb 52f 49f
1:00 11ft 13s 27 31 mph 1017.6mb 52f 49f
12:00 10ft 12s 25 34 mph 1018.7mb 52f 49f
11:00 9ft 15s 25 31 mph 1019.3mb 52f 49f
10:00 9.5ft 14s 25 31 mph 1019.5mb 52f 49f
9:00 9ft 14s 25 31 mph 1019.1mb 52f 49f
8:00 8.5ft 14s 27 31 mph 1018.3mb 52f 50f
7:00 8ft 12s 18 22 mph 1019.5mb 52f 49f
6:00 8.5ft 14s 16 20 mph 1020.3mb 52f 49f
5:00 9ft 13s 18 22 mph 1020.9mb 52f 48f
4:00 8.5ft 13s 16 20 mph 1021.7mb 52f 49f
3:00 9ft 14s 16 18 mph 1022.4mb 52f 49f
2:00 8ft 14s 16 20 mph 1022.9mb 52f 50f
1:00 9ft 14s 2 4 mph 1023.4mb 52f 49f
12:00 8ft 14s 13 18 mph 1024mb 52f 49f
Fr 12/26 11:00 8.5ft 12s 16 22 mph 1024.8mb 52f 49f
10:00 8ft 13s 18 22 mph 1025.1mb 52f 48f
9:00 8ft 11s 18 22 mph 1025.6mb 52f 48f
8:00 7.5ft 14s 20 22 mph 1025.5mb 51f 47f
7:00 8.5ft 14s 18 22 mph 1025.9mb 51f 46f
6:00 8.5ft 12s 18 22 mph 1026.3mb 51f 46f
5:00 9ft 14s 18 25 mph 1026.3mb 51f 46f
4:00 9ft 12s 20 25 mph 1026.2mb 51f 46f
3:00 8ft 12s 18 22 mph 1026.4mb 51f 47f
2:00 7ft 10s 18 22 mph 1026.2mb 51f 47f
1:00 6.5ft 11s 18 22 mph 1026.6mb 51f 47f
12:00 6.5ft 11s 18 22 mph 1026.8mb 52f 47f
11:00 7ft 12s 18 22 mph 1027.1mb 51f 46f
10:00 7ft 10s 16 22 mph 1028mb 51f 47f
9:00 6ft 10s 16 20 mph 1027.4mb 51f 47f
8:00 6ft 10s 16 18 mph 1026.7mb 51f 47f
7:00 6.5ft 12s 13 20 mph 1026.6mb 51f 46f
6:00 6.5ft 11s 13 18 mph 1026.5mb 51f 47f
5:00 6.5ft 11s 13 16 mph 1026.3mb 51f 47f
4:00 6ft 10s 13 16 mph 1026.1mb 51f 47f
3:00 6ft 10s 13 18 mph 1025.8mb 52f 48f
2:00 6ft 10s 11 16 mph 1025.5mb 52f 48f
1:00 6ft 10s 11 13 mph 1025.3mb 52f 47f
12:00 6ft 10s 11 13 mph 1025.1mb 52f 48f
Do 12/25 11:00 6ft 10s 9 13 mph 1025mb 52f 48f
10:00 6ft 9s 9 11 mph 1024.8mb 52f 48f
9:00 6ft 10s 9 13 mph 1024.8mb 52f 47f
8:00 7ft 10s 4 7 mph 1024.7mb 52f 49f
7:00 7.5ft 10s 4 7 mph 1024.2mb 52f 49f
6:00 8ft 10s 7 11 mph 1023.8mb 52f 49f
5:00 7.5ft 11s 9 11 mph 1023.6mb 52f 49f
4:00 8ft 10s 9 11 mph 1023.3mb 52f 49f
3:00 7.5ft 10s 9 11 mph 1023.2mb 52f 49f
2:00 8ft 11s 11 16 mph 1022.9mb 52f 49f